Regional Weather Roundup
Issued by NWS Raleigh/Durham, NC

Home | Current Version | Previous Version | Text Only | Print | Product List | Glossary On
Versions: 1 2 3 4 5 6 7 8 9 10 11 12 13 14 15 16 17 18 19 20 21 22 23 24 25 26 27 28 29 30 31 32 33 34 35 36 37 38 39 40 41 42 43 44 45 46 47 48 49 50
000
ASUS42 KRAH 041410
RWRRAH
NORTH CAROLINA WEATHER ROUNDUP
NATIONAL WEATHER SERVICE RALEIGH NC
1000 AM EDT SAT JUL 04 2015

NOTE: "FAIR" INDICATES FEW OR NO CLOUDS BELOW 12,000 FEET WITH NO
SIGNIFICANT WEATHER AND/OR OBSTRUCTIONS TO VISIBILITY.

NCZ001-053-055-056-065-067-041500-
WESTERN NORTH CAROLINA

CITY           SKY/WX    TMP DP  RH WIND       PRES   REMARKS
ASHEVILLE      CLOUDY    71  64  78 N6        30.07R
JEFFERSON      CLOUDY    69  59  72 W14G25    30.08R
MORGANTON      CLOUDY    73  67  82 W3        30.05R
HICKORY        CLOUDY    74  66  76 CALM      30.00R
RUTHERFORDTON  NOT AVBL
MOUNT AIRY     MOSUNNY   75  70  85 CALM      30.01R
BOONE          CLOUDY    69  60  73 NW13G22   30.08R
$$

NCZ021-022-025-041-071-084-088-041500-
CENTRAL NORTH CAROLINA

CITY           SKY/WX    TMP DP  RH WIND       PRES   REMARKS
CHARLOTTE      PTSUNNY   80  66  62 W13       30.00R
GREENSBORO     PTSUNNY   75  68  78 W9        29.97S
WINSTON-SALEM  MOSUNNY   74  67  78 W8        29.99R
RALEIGH-DURHAM PTSUNNY   80  70  71 W8G17     29.97S
FORT BRAGG     MOSUNNY   82  71  68 SW12      29.96F
FAYETTEVILLE   MOSUNNY   82  70  66 SW15      29.98S
BURLINGTON     MOSUNNY   79  69  71 SW13      29.96F
LAURINBURG     MOSUNNY   80  68  66 SW14      30.00S HAZE
$$

NCZ011-015-027-028-043-044-047-080-103-041500-
NORTHEASTERN NORTH CAROLINA

CITY           SKY/WX    TMP DP  RH WIND       PRES   REMARKS
ROCKY MT-WILSO MOSUNNY   82  70  66 W12G20    29.96R
GREENVILLE     MOSUNNY   81  72  74 SW12G21   29.98S
WASHINGTON     SUNNY     81  71  70 W17G24    29.97R
ELIZABETH CITY PTSUNNY   80  72  76 W15       29.93S
MANTEO         MOSUNNY   80  70  71 W17G23    29.94S
CAPE HATTERAS  MOSUNNY   80  72  76 SW12      29.98R
$$

NCZ078-087-090-091-093-098-101-041500-
SOUTHEASTERN NORTH CAROLINA

CITY           SKY/WX    TMP DP  RH WIND       PRES   REMARKS
LUMBERTON      MOSUNNY   78  69  73 SW14      30.01R
GOLDSBORO      MOSUNNY   83  72  69 SW14G22   29.96R
KINSTON        MOSUNNY   84  70  61 SW10G21   29.99R
KENANSVILLE    SUNNY     80  68  65 SW10G20   30.00S
NEW BERN       SUNNY     84  71  65 W15G23    29.99R
CHERRY POINT   SUNNY     85  69  58 SW20G32   30.00R
BEAUFORT       SUNNY     83  73  72 SW22G28   30.00R
JACKSONVILLE   SUNNY     81  67  62 W14G26    30.00
WILMINGTON     MOSUNNY   83  67  58 W23G30    30.03R
$$




USA.gov is the U.S. government's official web portal to all federal, state and local government web resources and services.